Location: Rometta
(44.2000°N, 10.0500°E)
Time: 20:57:23
(UTC+00:00)

CZ-3B R/B - Pass Details

Date: 20 January 2021
Orbit: 279 x 17414 km, 54.8° (Epoch: 03 March)

Event Time Altitude Azimuth Distance (km) Brightness Sun altitude
Rises 17:00:55 0° 316° (NW) 1,984 5.0 -8.6°
Reaches altitude 10° 17:02:34 10° 337° (NNW) 1,336 3.9 -8.9°
Maximum altitude 17:04:39 21° 33° (NNE) 1,163 3.0 -9.3°
Enters shadow 17:07:56 12° 81° (E) 2,368 4.4 -9.8°
